Вернуться в каталог

ARCSTONE

АктивенНаукаSSO
NORAD 64540·PAYLOAD·🇺🇸 United States

Запущен Jun 23, 2025 с Vandenberg Space Force Base

Loading…

Ближайшие Пролёты (ближайшие 24 часа)

TLE

СвежийSource: Space-Track

Эпоха: Sep 14, 2026, 14:26 UTC

1 64540U 25135N   26257.60174876  .00017063  00000-0  49447-3 0  9994
2 64540  97.4697  16.0923 0002244 204.5100 155.6037 15.35625452 68748

Отслеживайте ARCSTONE в реальном времени с AllMySat

Download on the App Store